Regional Weather Roundup
Issued by NWS

Home | Current Version | Previous Version | Graphics & Text | Print | Product List | Glossary On
Versions: 1 2 3 4 5 6 7 8 9 10 11 12 13 14 15 16 17 18 19 20 21 22 23 24 25 26 27 28 29 30 31 32 33 34 35 36 37 38 39 40 41 42 43 44 45 46 47 48 49 50
000
ASUS43 KFSD 222002
RWRSD

WEATHER ROUNDUP FOR SOUTH DAKOTA
NATIONAL WEATHER SERVICE SIOUX FALLS SD
300 PM CDT TUE AUG 22 2017

NOTE: "FAIR" INDICATES FEW OR NO CLOUDS BELOW 12,000 FEET WITH NO
SIGNIFICANT WEATHER AND/OR OBSTRUCTIONS TO VISIBILITY.


SDZ001>005-009-010-012>017-222100-
NORTHWEST AND NORTH CENTRAL SOUTH DAKOTA

CITY           SKY/WX    TMP DP  RH WIND       PRES   REMARKS
BUFFALO          N/A     84  41  21 SE7       30.12F
FAITH            N/A     80  43  26 VRB5      30.18F
MOBRIDGE       SUNNY     78  47  33 CALM      30.16F
$$

SDZ012>016-024>037-041>051-057-063-072>074-222100-
SOUTHWEST AND SOUTH CENTRAL SOUTH DAKOTA

CITY           SKY/WX    TMP DP  RH WIND       PRES   REMARKS
RAPID CTY ARPT SUNNY     82  45  27 S15G21    30.17F
PIERRE         SUNNY     78  45  30 CALM      30.17F
CUSTER         SUNNY     72  44  36 S8G17     30.30F
ELLSWORTH AFB  SUNNY     82  43  25 S15       30.17S
PHILIP         SUNNY     84  43  23 VRB6      30.16F
PINE RIDGE     SUNNY     84  45  25 S9        30.21F
SPEARFISH      LGT RAIN  79  41  25 E9        30.21F
WINNER         FAIR      79  49  34 W5        30.21F
$$

SDZ004>011-016>023-039-040-222100-
NORTHEAST SOUTH DAKOTA

CITY           SKY/WX    TMP DP  RH WIND       PRES   REMARKS
ABERDEEN       SUNNY     76  42  29 NW10G21   30.15F
WATERTOWN      MOSUNNY   71  48  43 NW15      30.15F
BROOKINGS      SUNNY     70  45  40 NW15G28   30.18S
SISSETON         N/A     74  50  42 NW16G25   30.12S
$$

SDZ017-020-022-023-036>040-048>070-222100-
SOUTHEAST SOUTH DAKOTA

CITY           SKY/WX    TMP DP  RH WIND       PRES   REMARKS
SIOUX FALLS    MOSUNNY   75  50  41 NW18      30.17F
HURON          SUNNY     77  45  32 NW15G23   30.17S
CHAMBERLAIN    SUNNY     77  50  38 SW7       30.19F
MITCHELL       SUNNY     77  46  33 N13       30.18F
YANKTON        SUNNY     74  48  39 VRB7      30.19F
$$

ABBREVIATIONS USED IN REMARKS
   TC - TEMPERATURE IN CELSIUS
  WCI - WIND CHILL INDEX
   HX - HEAT INDEX
  VSB - VISIBILITY





USA.gov is the U.S. government's official web portal to all federal, state and local government web resources and services.